Theta_e
324 323 321 321 321 320 319 320 320 320 322 322 322 322 327 337 340 339 342 340 336 336 336 336 335 335 335 334 335 336 336 337 337 336 336 336 336 336 336 336 336 336 335 334 337 341 344 344 345 346 347 348 349 350 351 352 352 352 352 352 352 352 352 353 353 353 354 353 353 354 354 353 353 353 352 350 348 348 347 347 347 346 344 344 345 346 346
322 321 321 320 319 319 319 320 320 319 320 321 320 323 330 338 339 339 342 340 338 338 336 335 335 334 334 334 334 334 335 335 336 335 335 335 335 335 336 336 336 336 336 334 333 335 339 343 345 345 345 346 348 348 348 349 350 351 352 352 353 352 352 352 352 352 353 353 354 355 355 353 351 350 350 349 348 348 348 347 348 348 346 344 344 344 345
321 319 321 320 319 320 318 318 320 320 319 320 320 324 331 337 338 338 338 338 339 339 335 333 334 333 334 334 334 334 334 334 334 335 334 335 335 335 335 336 335 335 335 335 334 333 334 337 341 343 344 344 345 346 347 347 348 350 351 351 352 352 352 352 352 351 352 352 353 355 355 355 353 351 350 349 348 350 350 347 346 348 348 346 344 342 343
321 319 319 319 319 319 317 317 319 319 318 319 320 323 328 333 336 336 336 337 337 336 333 333 334 333 333 333 333 332 333 334 334 333 333 334 335 335 335 335 335 335 335 335 335 334 333 333 335 337 340 342 343 343 344 344 346 348 349 350 351 352 352 352 352 351 351 351 352 353 354 355 355 354 353 351 348 349 351 348 346 346 347 347 346 344 343
320 318 318 318 317 317 317 318 319 319 319 320 319 320 325 330 334 335 335 337 336 334 333 333 333 333 333 333 332 332 332 333 333 333 333 332 333 334 333 333 333 333 334 335 335 335 333 332 333 334 334 335 339 342 343 341 341 343 346 348 349 350 351 352 352 352 352 351 351 352 352 353 354 355 355 353 350 350 352 351 349 348 347 346 345 345 345
320 319 318 318 316 316 318 320 319 319 319 319 319 320 324 329 333 334 335 335 335 334 333 332 333 333 333 332 332 332 332 332 332 332 332 332 331 332 331 330 330 329 331 333 335 335 332 329 330 334 333 330 331 336 341 341 338 337 338 342 345 347 348 349 350 352 352 353 352 352 351 351 352 354 354 354 353 352 353 353 351 350 350 348 346 345 345
321 322 320 318 317 318 321 320 320 320 319 319 319 321 325 330 333 334 334 334 335 333 332 332 332 333 333 332 331 330 330 331 331 331 331 330 330 330 329 328 327 326 326 329 331 333 331 326 326 332 334 332 328 328 331 334 333 331 331 332 336 340 343 344 346 347 348 350 351 352 352 351 352 352 353 354 354 354 354 353 352 351 352 351 349 346 345
321 323 321 319 319 320 320 320 321 322 322 323 324 325 327 330 332 332 334 334 332 331 331 332 332 332 332 331 331 330 329 329 330 329 329 328 327 329 329 327 326 325 325 327 328 329 329 326 326 331 334 333 331 328 325 326 326 324 324 323 325 329 334 338 341 341 341 343 345 348 350 350 351 351 352 351 352 353 353 352 352 352 353 353 352 349 347
321 321 320 322 322 320 321 322 320 321 323 324 328 328 327 329 331 331 333 333 330 329 330 331 331 331 331 331 330 330 329 328 327 327 326 325 324 325 326 326 325 323 322 324 326 327 327 326 326 331 333 332 332 330 327 327 327 324 321 320 320 321 324 329 335 337 337 337 338 341 344 347 348 350 350 350 351 353 353 352 352 352 352 353 352 350 349
322 320 319 321 321 321 323 324 320 321 320 319 325 329 327 327 330 330 331 331 329 328 328 329 328 329 331 333 331 329 328 326 326 325 323 322 321 321 322 323 323 322 320 320 322 324 325 323 324 327 330 331 331 330 328 329 331 328 323 320 319 318 319 323 329 334 336 336 333 334 338 340 343 347 349 349 350 351 353 353 353 353 352 352 351 351 351
324 321 318 319 322 326 330 326 321 320 319 317 323 326 323 325 328 329 330 329 327 327 326 325 326 328 331 331 329 327 327 325 324 323 322 321 320 319 320 321 320 320 318 317 320 322 322 321 321 325 328 329 329 328 327 328 330 329 326 322 319 318 317 319 323 329 335 336 334 333 334 335 338 342 345 347 348 350 351 352 353 353 353 352 352 351 351
324 323 319 320 325 329 330 325 319 318 318 319 321 320 320 325 326 327 329 328 325 325 324 323 325 328 329 328 325 323 324 323 322 322 321 320 320 320 320 320 319 318 317 317 319 321 321 320 321 324 326 326 327 327 326 327 327 327 328 326 322 319 318 317 318 323 329 332 331 331 333 334 336 338 339 342 345 348 350 351 352 354 354 354 353 353 353
321 320 319 321 325 327 325 322 318 315 316 320 321 321 323 326 325 325 326 325 323 323 323 323 325 325 324 322 321 320 321 320 320 320 319 319 319 319 319 318 318 318 316 316 318 320 321 321 321 322 323 323 324 324 325 325 324 325 330 330 325 321 318 317 317 319 321 324 324 325 329 333 336 337 336 336 339 343 348 351 352 353 354 354 354 354 354
318 319 318 321 327 328 322 319 317 316 321 325 326 326 325 323 323 324 324 323 322 322 322 322 322 321 320 319 319 319 318 318 318 318 319 319 318 318 317 318 319 319 317 315 316 317 318 319 319 320 321 322 322 321 322 323 322 324 331 332 327 323 322 321 319 317 318 319 319 320 324 329 332 334 335 335 337 338 341 347 350 352 353 354 354 354 354
318 317 316 320 329 328 321 321 324 326 329 330 327 324 323 322 323 324 323 323 322 321 321 321 319 319 319 318 318 318 318 317 318 318 318 318 318 317 317 318 319 319 317 316 315 313 313 313 313 314 316 318 319 320 321 323 323 325 330 330 326 325 328 329 325 319 317 317 316 318 322 324 326 330 334 337 339 338 337 338 340 343 347 351 353 354 354
320 319 319 322 327 325 320 323 328 328 327 327 323 322 322 322 321 321 321 321 321 320 320 320 319 318 318 317 318 318 317 317 318 318 318 318 317 317 317 318 318 316 315 315 315 314 313 311 309 310 310 312 315 318 321 323 323 324 326 326 325 328 331 331 327 322 318 315 314 316 318 319 321 327 334 338 340 341 341 339 336 335 337 341 345 347 348
325 324 325 326 324 322 322 323 325 325 324 323 323 323 322 321 321 321 321 320 320 319 319 318 318 317 316 317 317 317 316 317 318 317 318 318 318 318 318 316 314 313 313 314 316 316 316 313 310 310 310 310 312 315 318 320 322 323 323 323 325 329 330 328 327 323 318 315 314 314 314 319 324 328 333 338 339 340 342 343 339 333 331 332 335 338 341
326 323 323 323 322 322 323 323 323 323 322 322 323 322 321 321 321 321 320 320 320 319 318 318 317 316 316 317 317 316 317 317 317 317 318 318 318 318 317 315 314 313 314 316 317 318 317 315 313 311 311 310 310 311 312 314 317 319 321 322 324 326 325 325 326 324 321 319 317 314 316 325 331 331 331 335 337 337 340 342 341 336 332 329 329 331 334
326 323 323 324 323 323 323 322 323 323 322 321 321 320 319 320 320 320 321 321 320 319 319 318 317 316 316 317 316 316 317 317 316 317 317 317 317 317 316 316 316 315 315 317 317 317 316 316 315 314 314 313 313 313 314 314 313 314 317 320 322 322 323 325 326 326 324 322 320 318 321 328 332 331 328 327 329 331 332 333 334 333 330 326 325 325 327
324 324 324 322 321 321 322 322 323 323 321 320 318 317 318 318 319 319 320 320 320 320 319 317 317 316 316 316 316 317 317 316 317 318 317 317 317 316 315 316 316 317 316 316 316 316 316 316 316 316 316 316 317 317 317 317 316 314 314 317 321 322 323 326 327 326 325 323 323 325 327 326 325 326 325 322 320 321 321 322 324 325 323 322 322 323 324
323 324 323 321 321 322 321 320 321 322 321 320 318 317 317 317 318 319 318 319 319 318 317 317 316 316 316 316 317 317 317 317 317 317 317 317 316 316 315 316 316 316 315 314 314 315 316 317 316 317 317 317 317 317 317 317 318 317 315 317 320 322 323 324 326 326 325 324 325 327 326 323 320 320 321 320 318 316 315 317 321 323 322 321 320 322 323
325 325 324 324 325 324 321 320 320 320 320 320 319 318 318 317 317 318 317 318 318 317 317 316 316 317 317 317 316 317 317 317 317 316 317 317 316 315 315 315 314 314 314 315 315 316 317 317 316 316 316 316 317 317 317 318 318 318 317 317 319 321 322 323 324 325 325 324 323 324 323 322 320 318 317 316 316 315 315 316 319 322 324 322 320 320 321
325 323 322 322 323 323 322 321 320 320 320 320 319 319 319 318 318 317 317 317 317 317 316 316 317 317 317 317 317 317 317 316 316 316 316 316 315 315 315 314 313 313 314 315 315 315 315 315 314 313 314 316 316 317 317 318 317 318 318 318 318 320 322 323 324 325 325 325 324 324 323 322 321 319 317 316 316 318 319 318 318 321 322 321 320 319 320
324 323 322 322 322 322 322 321 321 320 320 319 319 319 319 319 318 318 318 318 317 317 316 316 316 316 316 316 316 316 316 315 315 315 315 315 315 314 314 313 313 314 315 315 315 314 314 314 314 314 315 317 318 317 318 318 317 317 318 318 318 319 320 322 324 325 325 325 325 324 323 322 320 319 318 320 322 322 321 318 318 318 318 318 318 318 318
323 323 322 321 321 321 321 320 320 320 320 320 319 319 319 319 319 319 319 318 318 317 317 316 316 316 316 316 315 315 315 315 314 314 314 314 314 313 313 314 314 314 314 314 314 313 313 314 316 317 318 318 319 319 318 318 317 317 317 318 318 318 319 320 322 323 325 325 325 324 323 322 321 321 322 324 325 323 319 317 316 316 315 316 316 317 317
322 321 321 320 320 320 319 319 319 319 320 320 320 319 319 319 319 319 318 318 318 318 317 317 317 316 316 316 315 315 315 314 314 314 313 313 313 313 313 313 313 313 313 313 313 313 313 315 317 317 318 318 319 319 318 317 317 317 317 318 318 318 318 320 321 322 323 324 324 324 324 323 323 324 324 324 323 321 318 317 316 314 314 314 315 317 320
321 320 320 320 320 320 320 320 320 320 320 320 320 319 319 319 319 319 318 318 318 318 318 317 317 317 316 316 315 315 314 314 313 313 312 312 313 313 313 313 313 313 313 313 312 312 313 315 316 316 316 317 317 318 318 318 318 318 317 318 318 318 319 320 321 322 323 323 323 324 324 324 324 324 324 322 321 320 319 318 316 315 314 314 316 319 321
320 320 319 319 319 319 319 319 319 319 319 319 318 318 318 318 318 319 318 318 318 318 317 318 317 317 316 316 315 314 314 314 313 312 312 313 313 313 312 312 312 312 312 312 312 312 313 314 313 313 314 314 315 316 316 316 317 317 317 317 318 318 319 320 321 321 322 323 323 323 323 324 324 323 323 322 321 320 319 317 316 315 315 316 319 323 324
319 318 319 319 319 319 318 318 318 318 318 318 318 318 318 318 318 318 318 318 318 318 318 317 317 317 316 316 315 314 314 313 313 313 312 312 312 312 312 312 312 312 312 312 312 313 313 312 312 312 312 312 313 313 313 314 315 315 316 317 318 318 319 320 320 321 321 322 323 323 322 322 322 322 321 320 319 318 318 317 316 316 316 318 322 325 326
317 317 318 318 318 318 317 317 317 317 317 317 317 318 318 319 319 318 318 318 318 318 318 317 317 317 316 316 315 314 314 313 313 312 312 312 312 312 312 311 311 311 311 311 312 312 312 311 311 311 311 312 312 311 311 312 312 313 315 316 318 318 319 320 320 320 320 321 321 321 321 320 320 319 319 318 317 318 318 318 318 317 318 320 324 326 327
316 316 316 316 316 316 316 316 316 316 316 316 316 316 316 317 318 319 319 319 318 318 317 317 317 317 316 316 315 314 314 313 313 312 312 312 312 311 311 310 310 310 311 311 311 311 311 311 311 310 311 311 311 310 310 310 311 312 313 314 315 317 318 319 319 319 319 320 320 320 319 319 318 318 318 318 318 319 319 320 319 318 319 321 323 324 325
315 315 315 315 315 315 315 315 315 315 315 316 316 315 314 314 316 317 318 318 318 318 317 317 317 317 316 316 315 314 313 313 313 312 312 311 311 311 310 310 310 310 310 310 310 310 310 310 310 310 310 310 310 310 309 310 311 312 312 312 313 314 315 316 317 317 318 318 318 318 318 318 317 317 318 319 319 320 320 320 320 319 319 319 321 321 323
314 314 313 313 313 314 314 314 314 314 314 314 315 315 315 314 313 314 315 316 317 317 318 317 317 316 316 315 315 313 313 313 312 311 311 311 311 310 310 310 310 310 309 308 309 309 310 310 310 309 309 309 309 308 308 309 311 311 311 312 312 311 311 312 313 314 315 315 316 316 317 317 317 317 317 318 318 319 319 319 319 319 319 319 320 320 320
313 313 312 312 312 312 312 313 313 313 313 313 314 314 315 315 313 313 313 315 316 316 317 317 316 316 315 314 314 313 313 312 312 311 311 311 311 311 310 310 309 308 307 307 308 309 309 309 309 308 308 308 307 307 307 308 309 309 310 310 310 309 309 310 310 311 312 313 313 314 315 315 315 315 315 316 316 317 318 318 318 318 318 318 318 319 319
312 312 312 312 312 312 312 312 312 313 313 313 313 314 315 315 314 313 314 315 316 316 316 316 316 315 314 313 313 312 312 312 311 311 311 311 310 310 309 309 308 307 306 306 308 308 309 308 308 308 307 307 305 305 306 307 308 308 308 308 308 307 308 309 309 310 311 311 311 312 312 313 313 314 314 315 315 316 316 317 317 317 317 317 317 317 318
311 311 311 311 311 311 311 311 312 312 312 312 313 313 314 315 315 314 314 315 316 316 315 315 315 313 312 312 312 312 312 311 311 311 310 309 309 308 308 307 307 306 306 306 307 307 307 307 307 306 306 305 304 305 306 306 306 307 306 306 306 306 307 307 308 308 309 309 310 310 310 310 311 312 312 313 314 315 315 315 315 316 316 316 317 317 316
310 310 310 309 309 309 310 310 310 310 311 311 312 312 313 315 315 315 314 315 315 315 314 314 313 312 311 311 312 311 311 311 310 309 308 308 307 307 306 306 306 306 306 306 306 305 305 305 304 304 303 303 304 304 305 305 305 305 305 305 304 304 305 305 305 306 307 308 308 309 309 309 310 310 311 311 312 313 313 314 314 315 315 316 316 316 315
309 308 308 308 308 308 308 308 309 309 310 310 310 311 313 315 316 316 315 315 315 314 314 313 312 312 311 311 311 310 309 309 308 307 307 306 306 306 306 306 306 305 305 304 304 304 303 303 302 302 302 303 303 303 304 304 304 304 304 303 303 303 303 304 304 305 306 307 307 308 309 309 309 310 310 310 311 311 312 312 313 313 314 314 315 315 315
307 307 307 307 307 307 308 308 308 309 309 310 310 311 313 314 315 315 316 315 315 314 313 312 312 311 311 310 310 309 308 307 307 306 306 305 305 305 305 305 305 304 304 303 303 302 301 301 302 302 302 303 303 302 302 302 302 302 302 301 301 301 303 304 304 305 306 306 307 307 308 308 309 309 310 310 310 311 311 311 312 313 313 314 314 314 313
307 307 307 307 307 307 307 308 308 308 309 309 309 310 312 313 313 315 315 315 313 312 312 311 310 310 309 308 308 307 307 306 306 305 305 305 305 305 305 304 304 303 303 302 302 301 300 301 302 302 302 301 300 300 300 300 300 300 300 300 301 302 303 304 304 304 305 305 306 306 307 307 308 308 308 309 309 309 310 311 311 312 312 311 311 311 311
308 307 307 307 307 307 307 308 308 308 308 309 309 310 311 313 314 314 314 313 311 310 310 310 309 308 308 307 307 307 306 305 305 305 305 305 304 304 305 304 303 303 302 301 301 300 300 301 301 301 300 299 298 298 299 299 299 299 300 301 301 302 302 303 303 304 304 304 304 305 305 306 306 307 307 308 308 309 310 310 310 310 309 309 310 310 310
308 308 308 308 308 308 308 308 308 308 308 308 309 309 310 312 313 313 312 311 310 309 309 309 308 307 307 306 306 306 305 305 305 304 304 304 304 303 304 303 302 302 301 300 300 300 300 300 299 299 298 298 298 298 299 299 299 300 300 300 301 301 301 301 302 302 303 303 303 304 304 305 305 306 306 307 307 308 308 309 309 309 309 309 309 309 309
308 308 308 308 308 308 307 307 308 308 308 308 308 308 310 312 312 311 310 309 309 308 308 308 307 306 306 306 306 305 305 305 305 304 304 304 303 303 303 302 301 301 300 300 299 299 299 299 299 299 298 297 298 299 299 299 299 299 299 299 299 300 300 300 300 301 301 301 302 302 302 303 304 305 305 305 306 306 307 307 307 307 307 307 307 306 307
308 308 308 308 308 308 307 307 307 307 307 308 309 310 311 311 311 309 309 309 308 308 308 307 307 306 305 305 305 305 305 305 305 304 304 304 303 303 302 301 301 301 300 300 300 300 299 299 299 299 298 298 299 299 298 297 297 297 298 298 298 298 298 298 298 299 299 299 300 300 301 302 303 303 303 304 304 304 305 305 305 305 305 305 305 305 305
309 308 308 308 308 308 308 307 307 307 308 309 311 312 311 310 309 309 308 308 307 307 307 306 306 305 305 305 305 306 306 305 304 304 304 303 303 303 302 301 301 301 300 300 300 300 300 300 300 299 298 298 298 298 297 297 296 296 297 297 297 297 297 297 297 297 297 297 298 298 299 300 301 301 302 302 303 303 303 304 304 304 304 304 304 304 304
309 308 307 307 308 307 307 306 307 307 307 308 310 310 309 308 307 307 306 306 306 306 306 305 305 305 306 306 306 305 305 305 304 303 303 303 303 302 301 301 301 301 300 300 301 300 300 300 300 299 298 298 298 297 297 297 296 296 296 296 296 296 296 296 296 296 296 296 297 297 298 299 300 300 301 301 301 302 302 302 302 302 302 302 302 302 302
308 308 307 307 306 306 306 306 306 307 308 308 308 308 307 306 305 305 304 305 306 307 306 306 306 306 306 306 305 305 305 305 304 303 302 302 302 302 301 301 301 301 301 301 301 301 300 300 300 299 298 298 298 297 297 297 296 296 295 295 295 295 295 295 295 296 296 296 296 296 297 297 298 299 299 300 300 300 300 301 301 301 301 301 301 301 301
308 307 307 306 306 306 306 306 306 307 307 308 307 307 306 306 305 305 305 306 307 307 307 307 307 306 306 306 305 305 305 305 304 303 302 302 302 302 302 302 302 301 301 301 301 301 300 300 300 299 299 298 298 298 297 297 296 296 295 295 295 295 295 294 294 295 295 295 296 296 296 296 297 297 297 298 298 299 299 299 299 299 300 300 299 299 299
307 307 306 306 306 306 306 306 307 307 307 307 307 306 306 306 306 306 306 307 308 307 307 306 306 305 305 305 305 305 304 304 304 303 302 302 302 302 302 302 302 301 301 301 301 301 301 300 300 300 299 298 298 298 297 296 296 296 295 294 294 294 294 294 294 294 294 294 295 295 295 295 295 295 295 296 296 297 297 297 297 298 298 298 298 298 298
307 307 306 306 306 306 306 307 307 308 308 307 307 306 306 306 307 307 307 307 307 307 306 306 305 304 304 304 305 304 303 303 303 302 302 302 302 302 302 302 302 301 301 301 301 301 301 300 300 300 299 298 298 298 297 296 296 295 295 294 294 294 294 294 294 294 294 294 294 294 294 293 293 293 294 294 294 295 295 295 295 296 296 296 296 296 296
307 307 307 307 307 307 306 307 307 308 307 307 306 306 307 307 307 307 307 307 307 307 306 305 305 305 304 304 304 304 303 302 302 302 302 302 302 302 302 302 302 301 301 301 301 301 301 300 300 300 300 299 298 298 297 297 296 296 295 294 294 294 294 294 294 294 294 294 293 293 293 293 293 293 292 293 293 293 293 293 294 294 294 294 295 295 295
307 307 307 307 307 307 306 306 306 307 307 307 306 306 307 307 307 306 307 307 306 306 306 305 305 305 304 304 304 303 303 302 303 303 303 302 302 302 302 302 302 301 301 301 301 301 301 301 300 300 300 300 299 298 298 297 296 296 296 295 295 294 294 294 294 294 294 294 294 293 293 293 293 292 292 292 292 292 292 293 293 293 293 293 293 294 294
Wind_Speed
5 3 5 7 6 8 9 8 5 5 5 6 4 4 6 7 8 7 8 12 14 12 14 14 11 11 13 16 20 22 23 24 24 25 24 21 19 19 19 21 21 21 22 21 19 17 16 17 17 19 19 17 14 13 11 7 9 9 9 10 9 10 12 13 13 14 15 18 20 22 24 23 22 23 24 22 19 20 24 27 27 24 22 23 26 26 24
5 2 3 5 7 7 7 6 7 8 8 6 4 3 7 9 11 13 12 12 10 8 10 12 13 19 21 21 21 21 22 23 23 24 23 21 19 18 18 19 19 19 21 21 21 19 16 15 15 17 19 19 17 17 15 10 8 9 8 7 7 7 9 10 11 13 15 17 19 21 23 24 24 24 25 27 25 21 22 25 28 28 26 23 24 26 26
6 5 3 3 4 4 5 6 6 6 6 6 5 5 8 9 11 12 13 14 8 5 12 16 18 24 24 19 17 18 21 24 24 24 22 20 19 18 16 17 17 17 19 20 21 21 19 16 14 15 16 16 16 17 17 14 10 9 7 7 7 7 7 8 9 11 13 16 18 21 22 23 24 25 25 27 28 25 23 23 25 28 30 28 25 25 26
4 6 4 3 3 3 4 5 4 3 2 3 4 4 4 6 11 13 12 10 6 7 14 17 18 21 21 18 20 21 21 24 24 23 21 19 18 17 15 15 15 15 16 18 19 19 18 17 16 15 15 16 16 18 18 14 10 7 6 5 5 6 6 5 6 8 10 13 16 19 21 21 22 25 26 28 29 27 25 25 25 24 26 28 28 27 26
2 6 7 4 2 2 4 2 3 3 1 2 3 1 3 7 10 10 8 7 9 12 14 14 13 16 17 17 19 22 23 25 25 22 19 17 16 16 14 13 14 14 15 17 17 15 14 16 17 16 15 15 16 17 18 16 11 7 6 6 5 4 4 3 4 5 7 10 13 16 19 19 19 21 24 26 29 29 27 28 27 25 24 26 27 28 27
2 6 6 2 1 3 3 1 4 5 3 3 1 2 4 9 7 7 8 9 11 13 13 13 13 15 17 18 19 20 20 20 21 21 19 16 14 14 12 11 13 14 14 16 16 14 13 14 15 15 15 15 15 15 15 16 14 9 7 6 5 4 2 1 1 2 4 6 9 11 14 16 17 18 20 21 24 27 29 30 30 29 27 27 28 28 28
2 6 3 2 1 4 1 5 7 6 1 6 4 2 6 10 12 13 13 11 12 14 15 17 19 21 22 21 21 19 16 16 19 21 20 17 15 13 11 11 12 14 15 16 15 13 12 13 14 16 15 14 14 14 14 13 14 12 10 9 7 5 3 2 1 2 3 5 7 8 10 12 14 17 19 20 21 24 26 28 29 30 30 30 31 30 29
1 4 2 3 3 1 4 6 5 6 5 3 5 5 8 8 13 15 13 11 12 15 19 22 24 26 25 22 21 19 14 14 20 22 21 18 16 14 12 11 12 13 14 15 14 11 11 13 15 15 15 13 13 14 14 13 13 13 13 13 11 10 7 4 3 2 3 5 7 9 11 13 13 15 18 19 20 22 24 25 27 28 30 31 32 32 31
2 1 1 0 1 1 2 2 1 2 5 5 6 5 5 7 11 12 11 10 11 15 22 25 25 26 23 17 16 20 15 15 20 21 19 18 16 15 15 14 13 11 12 14 13 9 8 11 15 14 11 10 11 12 14 15 14 13 13 14 14 14 12 9 5 5 5 4 4 6 9 12 13 15 18 20 19 20 22 24 26 27 28 30 31 31 30
2 1 1 1 2 1 2 0 2 6 12 12 8 6 3 4 11 14 10 9 13 16 19 22 23 22 16 7 9 20 20 16 18 18 16 17 16 14 12 12 11 8 8 11 12 9 7 9 13 13 8 6 9 10 12 14 15 14 13 13 13 14 13 11 8 6 6 6 4 3 4 7 10 13 18 21 20 19 20 22 24 26 27 28 29 29 27
3 1 1 0 1 2 4 2 6 12 17 14 10 7 1 2 12 19 12 9 15 19 18 18 18 14 7 1 6 18 20 17 18 18 17 16 13 9 6 6 6 6 7 8 8 6 7 9 11 11 6 4 6 9 11 11 11 13 15 13 12 12 12 11 8 5 4 4 4 4 4 4 5 7 13 18 19 20 20 20 21 23 25 26 27 27 26
3 2 1 0 1 2 3 3 9 12 13 10 9 6 4 5 9 19 16 14 20 22 20 16 11 7 6 7 12 18 19 16 16 15 14 13 10 7 5 4 4 5 5 4 3 4 6 7 7 6 4 4 6 8 9 8 8 11 13 14 14 13 11 9 8 6 4 3 5 6 5 5 5 5 6 10 13 16 16 16 16 19 21 23 24 24 24
3 2 1 0 1 1 0 7 10 9 8 7 6 4 5 5 9 14 19 24 25 23 22 19 14 13 15 16 17 18 17 14 13 12 11 11 9 6 5 4 4 3 2 3 2 4 4 2 2 2 2 3 5 6 6 7 9 9 9 11 13 14 13 10 7 6 5 4 6 7 6 5 7 8 8 9 10 11 12 12 12 14 17 19 21 22 22
2 2 2 1 1 1 3 10 12 9 4 2 3 3 6 15 19 21 25 27 26 24 25 24 21 20 19 17 17 17 15 14 11 9 9 8 6 5 5 3 1 1 3 5 5 4 4 4 4 5 6 6 6 6 7 8 8 8 7 8 11 13 14 13 9 6 5 6 8 8 6 6 7 8 9 10 12 11 9 10 12 13 14 15 16 17 19
2 2 1 1 1 1 5 8 7 7 3 4 5 10 16 19 21 23 24 22 21 24 26 23 20 19 17 15 15 14 13 12 10 8 8 7 5 5 5 2 1 1 2 4 5 6 7 8 8 8 8 8 7 6 6 6 5 4 4 6 9 10 9 12 12 10 8 8 10 9 8 8 8 9 9 10 12 13 10 9 10 12 13 14 14 14 15
1 1 1 3 2 4 10 9 5 5 8 9 12 15 16 16 16 18 20 19 18 20 21 19 16 14 12 12 12 12 11 10 10 10 9 8 7 6 4 2 2 3 3 3 3 4 6 8 9 9 9 8 7 6 5 5 4 3 4 5 7 7 7 11 14 14 13 12 11 11 11 11 9 8 8 9 11 12 12 11 10 9 11 13 14 15 16
0 2 2 2 1 11 17 16 14 14 12 11 13 13 11 10 10 12 14 15 15 16 18 18 15 12 10 10 11 10 10 9 9 8 7 6 7 6 3 3 5 5 4 3 3 3 5 7 8 8 9 9 8 8 9 9 8 7 6 6 4 5 9 12 13 15 16 16 14 12 12 11 10 8 7 7 9 10 10 12 12 10 10 10 12 14 16
1 4 7 7 6 13 20 20 17 15 13 12 13 11 9 9 9 10 12 12 10 12 14 13 11 9 9 9 9 9 9 8 6 5 4 4 3 2 1 4 5 5 4 3 3 4 5 7 7 8 8 9 10 11 11 11 11 10 10 8 7 8 10 12 13 14 15 15 14 13 10 7 7 8 8 8 9 9 10 12 14 14 13 12 12 13 13
2 2 4 7 9 14 20 21 17 14 13 12 9 9 11 11 10 10 12 13 11 11 10 9 9 9 8 7 7 8 8 5 3 4 4 3 2 2 2 3 4 4 4 4 4 5 7 7 8 8 9 10 11 11 12 12 12 11 11 10 10 9 8 9 12 13 13 12 13 13 9 7 9 11 12 11 11 12 12 14 16 18 18 18 18 16 15
1 1 2 7 10 13 17 19 18 17 15 12 9 9 11 12 11 10 11 12 12 12 10 10 10 9 7 6 6 6 6 5 5 4 3 3 4 4 4 4 3 3 4 6 7 7 7 8 8 8 9 10 11 12 12 13 13 12 10 9 8 8 7 7 9 13 13 11 10 10 11 12 13 14 15 14 14 14 15 16 17 18 19 20 19 18 18
1 1 3 6 6 8 7 9 13 17 18 16 12 11 10 9 10 10 11 12 11 10 11 13 13 12 9 8 6 6 6 5 4 3 3 4 4 4 4 3 3 4 6 7 8 8 8 8 8 7 6 7 8 10 12 13 13 14 12 9 8 8 8 7 7 11 13 12 10 12 15 16 17 17 17 16 17 18 17 16 16 17 18 19 18 18 18
1 0 4 6 2 5 6 9 8 10 11 11 11 13 15 14 12 13 14 16 14 11 12 15 15 15 13 10 8 7 6 4 3 4 4 3 4 4 5 6 7 7 6 7 7 7 7 9 10 9 8 7 6 7 9 11 12 13 13 12 9 7 7 7 7 10 14 14 15 16 18 18 19 20 18 17 17 18 17 16 16 16 17 18 18 18 19
1 3 5 5 4 5 7 7 5 5 5 4 4 7 11 14 16 16 15 17 17 15 14 15 15 15 15 13 11 9 6 5 5 5 4 5 5 6 7 8 8 6 5 5 6 8 11 12 12 11 10 8 6 7 8 9 11 11 13 14 12 9 9 8 7 9 13 15 16 18 19 20 20 20 20 18 16 15 16 16 16 16 17 19 18 18 19
3 5 6 5 3 3 5 4 2 1 1 1 1 0 3 8 14 17 16 19 22 21 18 18 17 14 13 13 11 9 8 9 8 6 5 6 8 8 9 8 6 4 5 7 9 12 13 12 10 8 7 7 8 8 8 9 11 11 11 12 13 12 11 10 8 8 11 14 16 18 20 21 21 20 19 17 16 16 16 17 17 18 19 19 18 18 18
2 1 2 4 3 4 5 3 3 5 6 7 8 7 5 5 8 11 12 15 20 21 19 19 17 15 14 13 11 10 10 10 8 6 6 8 9 8 7 5 4 5 8 10 12 14 13 9 7 6 6 6 7 7 7 9 10 10 10 11 12 13 13 12 11 10 12 14 16 17 19 19 19 17 15 15 18 19 18 17 18 19 19 19 19 18 17
2 3 4 4 6 8 8 6 5 5 6 8 10 13 13 11 10 9 7 6 10 15 18 18 16 14 14 14 12 10 10 10 9 9 9 9 8 6 5 6 8 10 12 13 14 13 10 7 6 7 7 7 9 9 9 10 10 10 9 10 11 11 12 12 12 13 14 15 16 16 16 15 14 14 15 17 20 22 21 21 22 22 21 20 19 17 15
3 3 3 3 3 4 3 2 2 3 5 7 9 13 15 15 15 14 11 8 8 11 15 18 17 15 14 13 14 13 12 11 11 11 10 8 6 6 8 10 12 13 14 14 14 12 10 8 9 9 9 9 10 10 10 10 10 11 11 11 10 10 11 12 13 14 15 16 15 15 15 14 14 16 18 20 21 23 25 27 27 25 23 21 19 17 18
4 5 3 2 3 4 3 3 4 5 6 8 9 12 13 15 16 16 13 11 11 12 13 17 20 20 17 14 13 14 13 12 11 9 7 7 8 10 12 12 13 14 14 13 12 11 11 12 13 12 11 11 12 12 11 10 9 9 11 11 11 11 11 13 14 16 16 16 15 15 15 15 16 18 19 21 23 25 27 26 24 23 24 23 20 19 20
4 4 2 2 4 5 5 6 6 6 6 7 9 10 11 12 14 15 13 11 12 13 14 17 20 22 21 17 15 15 14 11 9 8 10 10 11 12 12 13 15 15 14 12 11 10 12 14 14 13 12 13 14 14 13 11 8 7 7 7 9 10 11 13 16 17 17 16 15 15 15 16 17 19 21 22 23 23 23 22 21 22 23 22 20 20 20
3 2 2 3 4 5 6 6 6 6 7 8 9 9 10 11 12 14 15 14 14 15 16 18 20 22 22 20 17 16 16 13 10 11 13 13 13 13 14 15 16 16 14 12 11 11 12 13 13 13 13 14 14 14 13 12 10 8 7 6 6 7 7 8 10 12 13 13 14 14 15 16 17 18 19 20 20 19 19 20 21 22 21 20 20 21 21
1 1 3 4 5 6 6 6 5 5 6 7 9 9 10 12 13 15 15 15 16 16 16 17 20 22 24 22 19 17 17 16 14 13 12 13 13 14 15 16 17 15 13 12 12 12 12 12 12 13 15 16 15 16 16 14 11 11 10 10 9 7 6 6 7 8 10 12 14 15 15 15 16 16 16 16 17 18 19 20 20 20 20 21 22 23 23
2 2 3 4 5 5 5 5 6 7 7 8 9 10 10 10 13 16 18 18 18 17 17 18 20 22 23 23 21 19 17 16 15 13 11 10 11 12 14 16 16 14 13 13 12 12 13 14 14 15 17 17 17 18 17 13 11 12 13 13 13 13 13 12 11 12 13 13 13 13 14 14 15 16 16 16 17 18 20 21 21 21 22 23 25 26 27
4 5 5 5 6 7 8 9 9 9 9 9 10 11 12 11 12 15 19 21 21 20 19 19 20 21 20 19 20 20 18 15 13 11 10 10 11 12 14 15 14 13 14 15 13 12 13 15 15 17 18 18 19 19 15 10 11 13 14 14 16 18 18 17 16 15 15 15 14 14 15 16 18 19 19 19 19 20 20 22 23 24 25 26 26 27 29
6 7 8 8 9 10 12 13 13 13 12 11 11 12 14 14 13 14 16 19 21 21 19 19 20 21 19 18 18 18 16 14 12 10 9 9 9 10 11 12 12 12 13 12 12 12 13 14 15 17 18 19 20 18 12 9 12 15 15 16 18 18 18 17 16 16 16 16 17 17 18 18 20 21 21 21 20 21 22 23 24 25 27 28 28 28 30
8 11 12 12 12 12 13 14 15 15 15 14 13 13 14 15 15 15 14 16 17 17 18 20 22 20 18 16 17 15 13 12 11 11 11 11 10 10 11 11 11 11 10 9 11 12 13 13 15 17 20 21 19 15 10 10 13 15 15 16 17 16 15 15 15 15 16 17 18 19 19 19 19 20 21 21 21 22 23 24 25 25 26 27 28 29 31
12 13 14 14 14 15 15 15 16 17 17 16 16 15 15 16 16 15 14 15 16 15 17 20 21 19 15 14 15 15 13 13 12 12 11 10 10 11 10 10 10 9 8 9 12 13 13 14 17 19 21 20 17 13 11 11 13 14 16 17 17 15 15 15 15 16 17 18 19 20 20 20 20 21 22 22 23 23 23 24 24 24 25 26 27 28 29
14 15 16 17 17 18 18 17 17 18 18 18 18 17 17 17 17 16 15 14 14 14 15 16 18 19 18 16 15 14 13 12 11 11 11 10 10 10 9 8 9 9 9 10 12 14 15 17 20 20 19 17 15 14 14 13 13 14 17 18 18 16 16 16 16 17 17 17 18 19 20 20 20 21 22 22 23 23 23 24 24 24 25 26 27 28 30
18 19 20 20 20 21 21 20 19 18 18 18 18 19 18 18 17 16 16 14 13 14 15 17 21 24 24 22 18 15 13 11 10 10 9 8 8 7 6 6 8 9 10 11 12 14 16 18 18 16 14 13 14 14 15 15 15 16 18 19 18 17 16 16 16 16 16 16 16 17 18 19 20 21 21 21 22 22 23 23 24 25 27 28 29 30 31
20 20 20 20 19 19 19 19 19 18 17 17 18 19 19 17 16 17 17 16 14 15 18 23 26 26 24 20 16 13 11 10 9 8 7 6 6 5 5 6 7 8 10 11 13 15 15 14 13 12 12 13 15 16 17 17 18 19 20 19 16 15 15 15 16 16 16 17 17 17 17 18 19 20 20 20 20 21 22 23 24 24 25 26 27 28 29
21 20 20 20 19 18 18 18 19 18 17 18 19 20 20 17 17 18 19 18 18 19 21 23 23 21 17 15 13 12 11 8 7 6 6 5 4 4 4 5 5 6 9 12 14 15 13 10 9 10 13 15 17 18 17 17 17 17 16 14 13 13 14 15 15 16 17 17 17 17 18 19 19 19 20 21 21 21 21 21 22 23 24 26 28 29 29
23 23 22 21 21 20 20 20 19 18 18 19 20 20 20 18 18 20 21 20 20 20 20 20 19 17 16 15 14 12 10 9 7 7 6 4 3 4 4 4 6 9 11 13 14 12 9 7 7 10 14 17 17 15 14 14 13 12 11 10 10 12 13 14 14 15 16 17 17 18 18 18 18 18 19 20 21 21 21 22 24 26 28 29 29 29 30
24 24 24 24 24 23 23 22 20 19 20 20 20 20 19 18 19 22 23 22 21 20 19 18 17 16 16 15 13 11 11 10 8 7 5 4 3 4 5 6 8 10 11 11 10 7 5 6 8 12 17 19 16 12 12 11 10 9 9 10 11 12 12 13 14 14 15 15 16 17 17 16 16 17 17 17 18 19 20 21 23 24 24 25 26 28 30
22 22 22 24 25 24 24 23 21 19 19 20 20 19 17 16 19 23 24 23 23 23 22 19 18 17 16 15 13 12 11 9 7 6 6 5 4 3 3 4 6 7 9 10 8 6 5 7 10 15 19 17 13 11 11 10 9 9 10 10 10 11 11 12 13 14 15 15 15 15 15 15 15 15 16 16 18 19 20 21 21 22 24 26 28 29 29
22 21 22 23 24 24 23 22 19 18 19 18 16 16 17 18 22 26 28 28 26 24 22 21 20 18 17 15 13 12 11 9 7 6 6 6 5 3 0 3 4 5 7 7 6 5 5 8 12 17 17 13 10 11 12 10 10 10 9 9 9 10 11 11 12 13 14 15 15 16 15 15 15 15 16 17 18 20 21 21 22 23 24 25 25 26 27
19 18 19 20 21 21 19 17 16 16 17 15 14 16 20 24 28 30 30 30 27 23 21 20 20 18 16 15 14 13 11 9 8 7 6 6 5 4 2 1 3 6 7 5 4 4 7 10 13 17 15 11 10 11 12 11 10 9 8 9 10 10 10 12 13 13 13 14 14 14 14 14 15 16 17 17 18 20 20 20 20 21 22 23 25 26 27
14 14 14 14 14 13 13 13 13 13 14 15 16 19 23 27 27 26 25 25 23 20 18 18 19 18 15 14 13 12 9 8 7 7 7 7 6 4 2 3 5 6 6 3 1 4 8 11 14 16 13 10 9 11 11 11 11 11 10 11 12 12 12 14 15 15 15 15 13 12 12 13 14 14 15 16 18 19 19 19 20 21 22 23 24 25 26
11 10 9 9 8 7 7 9 10 11 14 17 18 18 20 21 20 19 20 22 21 19 17 17 18 17 13 11 11 11 11 10 9 6 5 5 5 3 3 4 3 3 5 4 4 5 7 10 13 14 12 8 9 11 11 11 12 13 13 12 12 13 14 16 16 17 17 16 14 13 13 14 14 15 15 16 18 19 19 20 20 21 21 22 23 24 25
11 9 6 5 6 5 5 8 10 12 17 20 21 20 21 20 18 19 21 22 21 19 17 17 17 15 12 10 9 9 10 11 10 9 7 5 4 2 2 3 2 1 2 4 6 7 8 10 12 13 12 9 9 12 13 12 12 13 14 13 13 13 14 16 17 18 17 15 14 15 15 15 15 16 17 17 18 18 19 19 19 20 21 22 22 23 24
8 7 5 3 3 3 4 6 8 12 17 21 21 21 21 20 19 20 21 22 21 19 17 16 14 12 12 12 11 9 9 9 10 9 8 6 4 3 3 3 3 3 3 4 5 6 6 7 10 13 13 10 9 12 13 13 13 13 14 14 13 13 15 17 18 18 17 15 14 15 16 16 16 16 16 17 17 18 18 18 18 19 20 21 21 21 21
8 6 6 4 1 2 3 5 8 12 15 16 18 20 20 19 19 19 20 21 21 20 17 15 13 11 12 13 11 7 7 8 8 6 5 5 4 4 4 5 5 5 4 4 4 5 5 7 10 12 12 10 9 11 12 13 13 13 14 14 14 13 14 15 17 17 17 15 15 16 17 16 15 15 16 17 16 16 16 17 17 17 18 19 19 19 20
12 10 10 9 7 7 7 8 10 12 11 11 15 19 20 18 19 20 20 21 22 20 17 13 11 11 12 12 9 4 4 6 6 5 5 5 4 4 4 4 5 5 5 4 5 6 8 9 10 10 10 10 11 12 12 12 13 14 14 14 13 13 13 13 15 16 17 16 16 17 17 16 15 15 15 15 15 15 15 15 14 15 15 15 16 16 16
15 14 13 13 13 13 13 12 12 13 13 13 16 19 18 17 18 19 18 18 18 18 15 13 12 12 11 10 7 4 5 6 5 5 5 5 4 4 4 4 4 5 6 6 6 7 9 9 9 10 10 10 11 12 13 13 13 13 14 13 13 14 13 13 13 14 15 16 16 17 17 17 16 16 15 14 13 14 15 14 12 11 11 11 11 11 11
Wind_Direction
271 284 350 340 352 10 346 335 5 19 61 83 31 30 91 119 124 136 159 144 134 140 139 138 136 121 110 106 107 115 122 120 115 106 99 94 87 80 75 69 64 64 63 62 68 80 93 93 86 80 74 69 69 72 78 118 163 175 187 201 207 211 217 221 227 231 232 230 226 224 225 225 224 221 220 224 227 228 234 239 243 246 242 234 236 243 249
300 301 14 360 8 11 350 11 50 28 23 42 23 37 87 108 130 144 142 122 112 119 119 114 117 115 109 107 111 117 118 113 106 99 95 93 88 81 76 73 68 66 63 59 59 64 76 89 95 89 78 71 70 66 59 68 105 128 143 156 164 181 201 214 226 235 237 234 230 228 229 228 226 224 224 227 230 233 232 230 231 235 239 237 236 239 244
335 339 5 356 349 341 337 360 38 43 19 1 9 67 100 114 128 134 124 111 101 103 106 103 106 108 103 98 95 97 102 103 99 95 92 92 91 86 79 75 72 70 68 63 56 54 58 71 84 87 82 78 77 72 63 61 77 101 122 135 141 152 171 193 210 222 230 233 230 229 230 231 230 229 229 228 231 236 237 232 227 227 227 227 229 234 241
331 318 311 269 270 297 319 333 350 31 35 339 1 63 89 113 127 125 116 115 127 131 119 112 107 104 97 86 81 85 95 99 97 93 88 86 89 90 86 79 75 72 71 68 62 57 55 58 61 65 73 78 79 77 71 63 67 88 101 113 128 134 139 159 185 202 215 224 227 227 230 234 236 238 238 234 231 235 239 236 233 232 229 226 226 228 236
278 290 286 258 234 286 293 304 320 306 292 32 355 350 88 100 124 133 130 136 145 141 132 126 120 111 105 100 98 99 102 103 102 102 100 94 91 91 88 82 78 76 75 73 67 59 56 59 59 54 54 62 71 77 73 62 58 73 83 82 94 120 142 156 166 181 205 221 225 226 228 232 237 240 241 239 235 236 239 238 234 235 237 235 231 228 231
278 288 288 282 134 248 247 55 9 300 238 153 236 285 93 97 111 125 129 138 137 134 137 139 136 129 124 123 119 112 112 116 115 115 118 119 112 103 95 87 80 75 77 78 71 58 49 55 63 58 48 52 63 72 72 61 55 60 69 72 79 100 131 161 194 200 214 227 233 234 233 236 240 242 243 245 243 242 242 240 237 237 239 239 238 234 232
315 312 331 104 192 251 224 54 18 341 270 166 177 342 62 103 118 118 123 137 137 136 143 142 134 131 130 133 133 124 116 120 124 121 120 123 123 120 110 97 87 75 71 72 68 56 43 42 55 56 44 38 49 61 63 57 52 53 54 54 56 63 80 86 5 298 267 259 258 255 247 244 247 250 249 250 251 252 251 247 241 239 239 240 240 239 237
272 327 15 138 198 266 53 49 15 1 14 89 110 43 34 82 113 119 126 135 127 124 132 136 135 137 137 134 138 139 126 117 124 125 121 118 117 119 114 106 98 85 75 70 62 50 35 36 49 54 40 22 25 43 50 47 44 46 45 43 41 40 42 49 54 30 338 296 276 264 257 253 253 256 256 254 255 258 258 254 248 244 242 241 241 242 240
243 309 333 174 136 70 51 60 46 23 34 60 100 88 44 64 96 115 126 130 121 113 120 129 136 141 139 130 140 152 144 122 120 118 116 115 110 107 109 108 102 91 79 77 72 51 28 38 51 55 42 13 5 22 37 36 31 33 40 42 41 40 38 37 47 61 51 20 310 272 265 265 265 262 258 253 253 257 258 253 249 246 244 242 243 245 244
307 355 329 346 61 269 270 56 79 65 64 68 80 92 77 76 104 115 118 122 124 114 113 124 129 129 127 121 154 159 150 131 123 120 118 118 109 103 107 103 91 72 58 74 79 55 28 46 54 50 39 2 352 9 31 35 25 16 21 30 35 39 39 35 33 39 48 42 9 325 304 292 280 267 258 255 255 259 260 256 249 244 243 243 242 244 244
305 351 189 269 73 267 277 19 62 66 71 73 69 67 345 238 133 137 141 119 115 112 108 113 114 114 122 88 124 140 140 130 124 119 114 114 106 97 98 84 62 43 42 71 89 61 38 50 52 47 44 15 357 7 25 36 26 10 3 3 11 24 32 32 27 17 26 39 18 3 5 348 318 278 262 258 255 255 257 260 258 251 245 242 241 240 240
279 300 287 39 93 247 263 62 66 70 76 75 71 75 280 279 136 146 149 117 110 115 112 103 85 79 113 107 99 114 122 119 115 109 104 108 107 95 78 45 31 37 44 67 94 61 48 51 45 42 47 29 18 18 23 27 20 10 360 348 347 356 6 19 26 16 8 17 6 3 20 32 21 351 306 281 267 257 254 261 268 263 254 247 244 241 240
267 270 273 92 96 260 354 68 69 77 81 72 89 155 255 349 75 113 116 105 105 111 108 103 97 98 106 106 101 105 108 107 106 105 103 106 104 89 63 31 17 15 352 336 5 33 41 37 3 338 324 349 9 18 14 6 3 6 357 340 341 345 344 349 6 14 9 358 350 353 3 14 21 17 2 345 322 292 268 262 270 270 262 256 252 250 245
265 245 247 130 81 325 78 78 65 60 79 124 153 126 52 52 68 88 101 103 104 104 104 106 110 109 107 106 103 101 102 104 108 116 122 119 104 84 75 59 30 322 300 295 294 312 323 310 294 280 279 296 323 340 349 354 358 5 354 333 337 346 341 335 337 348 356 348 343 345 341 338 351 1 2 5 2 345 306 276 273 273 267 262 261 262 258
226 236 270 139 191 313 100 97 54 26 74 152 119 81 70 67 74 88 101 106 105 105 106 107 107 106 105 106 107 105 107 109 114 125 134 135 125 105 98 107 194 238 287 290 283 289 300 303 300 293 291 297 306 318 338 351 352 357 343 327 343 356 340 321 320 323 325 331 337 338 328 324 334 341 345 354 1 359 345 315 294 286 276 265 263 268 268
152 182 236 232 218 72 85 102 99 85 105 113 101 88 80 74 76 88 99 101 104 111 114 111 110 108 104 110 120 120 118 121 126 125 121 124 133 134 137 177 243 269 286 304 309 296 293 296 299 301 301 303 302 294 293 293 290 288 284 304 341 353 308 291 306 317 316 318 325 326 323 326 330 324 326 341 348 347 344 334 319 304 291 279 272 272 273
116 145 175 234 110 91 97 109 115 110 104 106 110 104 93 89 96 104 107 102 101 110 116 115 115 114 116 125 130 127 127 132 134 126 117 123 135 140 168 242 277 295 307 327 333 319 306 301 300 300 301 301 299 289 281 275 272 274 279 290 311 304 286 292 305 312 314 317 319 321 324 330 329 315 307 321 334 337 332 321 312 305 297 293 290 285 278
54 120 145 157 136 116 116 119 121 118 113 113 115 111 111 123 123 121 131 136 128 122 126 127 125 126 132 136 139 143 143 133 122 128 146 158 158 157 219 271 295 313 328 337 332 323 322 319 315 313 308 305 305 303 298 291 280 271 270 274 269 266 281 300 307 308 313 316 315 319 323 318 307 298 288 286 297 308 312 309 307 306 303 302 307 306 296
54 90 149 146 142 134 126 124 131 138 135 130 124 114 120 133 135 127 135 147 152 151 151 149 143 141 144 146 154 166 166 151 136 161 185 219 258 279 300 316 325 327 322 323 325 322 326 332 336 333 328 325 323 322 319 315 306 291 277 271 270 271 279 295 302 304 307 309 312 316 306 279 273 279 279 276 277 283 292 298 299 301 301 301 305 307 306
127 164 116 104 124 139 136 136 145 152 149 142 134 127 125 126 131 135 135 139 150 162 172 175 169 167 175 176 166 161 167 174 178 181 206 251 271 299 328 344 352 333 312 307 315 324 332 337 339 340 341 340 333 328 326 324 322 315 298 277 271 274 269 272 290 300 300 301 307 301 280 270 273 277 282 287 289 289 294 298 298 299 300 301 303 305 305
208 179 38 55 113 141 123 119 140 151 155 156 157 166 169 155 145 155 160 161 166 174 184 190 187 179 180 182 168 152 153 164 178 193 219 249 278 310 325 313 292 298 307 316 328 337 340 331 322 316 317 322 326 329 328 323 322 324 316 295 277 274 267 259 272 291 295 291 283 274 271 277 282 281 281 288 293 294 296 297 299 303 304 303 305 306 303
224 208 10 14 111 129 62 52 86 122 142 157 167 180 189 191 190 189 183 179 183 188 191 194 191 187 194 204 197 184 179 171 172 192 216 256 289 292 282 282 291 309 331 339 336 326 311 304 305 304 297 290 291 307 317 316 316 320 320 312 296 281 272 266 269 286 291 287 281 278 279 282 285 285 284 285 289 294 296 294 295 299 301 302 306 308 304
86 71 37 26 78 88 48 40 62 85 94 109 134 166 187 197 200 199 191 185 187 190 187 184 181 182 190 194 188 189 205 212 214 235 268 284 280 276 286 303 322 345 352 331 306 298 296 299 304 308 309 310 310 309 311 313 312 311 313 313 306 290 273 266 274 291 289 281 280 286 287 288 291 294 294 293 292 292 293 293 292 291 292 296 302 306 305
65 58 32 19 43 50 31 36 42 3 342 286 284 187 194 201 205 211 214 206 201 199 195 191 188 186 187 191 196 204 212 220 236 259 269 264 268 283 306 328 348 342 309 296 295 299 303 309 317 321 323 337 346 336 322 315 310 304 301 302 300 293 282 270 273 293 293 284 283 288 291 294 298 300 299 298 295 290 288 291 292 292 294 297 299 300 301
170 203 315 326 305 293 297 292 283 282 273 268 268 265 261 235 214 218 223 215 207 202 197 194 195 195 198 205 207 203 205 221 240 242 236 254 281 304 319 333 328 296 291 297 302 305 310 320 335 343 338 332 330 321 307 303 303 299 297 298 296 292 284 274 270 280 290 290 288 288 289 295 301 301 296 294 294 294 296 298 298 297 298 301 301 300 300
218 248 267 271 268 270 270 272 278 268 253 255 256 252 252 253 244 236 235 222 209 204 201 198 192 185 189 198 199 198 206 215 214 215 236 266 296 311 293 277 275 280 288 296 301 310 324 332 326 328 329 317 308 300 289 285 288 290 293 299 301 297 291 283 278 280 286 289 288 285 285 289 290 285 282 286 293 299 304 306 305 303 302 300 300 300 299
251 256 249 250 266 267 251 252 284 276 264 262 254 247 248 251 251 247 244 242 237 226 218 215 209 202 200 204 208 212 213 211 213 228 252 270 277 268 263 266 274 281 287 293 302 312 320 314 309 312 310 304 306 307 295 284 283 284 282 285 291 293 292 287 281 277 278 278 276 273 271 270 269 272 278 286 292 296 300 303 305 305 303 301 301 301 302
232 240 239 260 297 304 306 304 301 298 297 294 282 269 263 258 254 250 246 245 254 251 232 218 213 211 208 205 205 206 209 219 235 241 237 232 238 250 260 269 277 285 290 295 301 308 306 303 309 313 303 294 297 300 295 291 290 283 279 281 284 283 282 280 277 275 274 272 267 263 263 266 269 273 280 285 288 290 294 298 302 302 299 298 300 303 307
247 255 254 268 282 290 302 311 311 307 302 294 286 284 281 273 264 260 254 248 250 251 236 219 212 212 213 213 213 209 208 216 225 214 207 219 236 249 261 269 275 284 294 294 290 293 299 303 309 311 305 301 302 301 300 306 309 297 290 294 296 292 287 279 274 273 274 270 263 260 264 270 275 278 282 286 289 292 296 300 304 303 298 296 300 307 311
283 299 298 288 286 287 289 293 301 306 301 295 288 281 276 273 269 268 265 255 250 249 239 222 212 210 212 216 220 218 211 208 204 201 208 222 237 249 263 273 279 285 291 288 284 290 299 304 307 307 303 304 309 311 313 321 328 328 324 318 310 307 304 293 282 278 277 273 268 266 272 277 281 284 288 290 293 296 297 298 301 301 297 293 295 300 303
323 330 305 293 288 289 289 292 302 311 311 310 307 298 283 270 263 264 265 262 257 254 245 230 219 213 212 215 220 220 217 216 217 217 220 230 242 254 266 276 282 284 282 278 284 294 298 298 301 302 300 301 306 310 313 322 338 343 333 317 302 286 276 280 284 280 275 274 274 276 280 283 284 287 289 291 293 293 291 292 294 295 292 287 284 286 287
308 299 304 306 307 312 316 315 311 310 308 305 304 305 302 286 270 263 259 256 255 252 243 232 223 217 214 215 219 220 219 219 222 227 234 247 257 263 268 273 275 277 279 283 288 294 295 294 295 295 295 298 303 306 310 322 337 330 316 309 302 289 277 274 276 274 270 270 272 275 279 280 280 279 279 279 281 282 283 284 287 288 287 284 281 280 281
319 312 309 311 313 314 315 312 304 300 300 299 296 298 300 297 288 275 264 257 254 250 243 233 224 216 210 211 214 215 214 214 220 229 244 258 265 264 263 264 266 273 282 285 285 286 288 290 291 291 293 296 301 304 309 323 327 316 307 302 300 295 291 289 289 287 282 277 273 268 265 266 269 271 272 276 280 281 281 282 283 283 284 283 281 281 281
325 316 306 304 301 295 296 298 298 295 294 292 292 295 295 295 298 294 280 265 257 251 245 234 222 211 205 204 204 203 204 210 216 221 229 236 245 252 255 260 270 282 288 284 278 277 280 282 287 292 294 297 300 303 306 311 309 307 304 299 295 296 299 299 298 297 295 289 282 276 272 272 273 274 274 275 277 278 278 280 281 283 285 285 283 282 281
299 295 290 289 290 288 286 287 289 292 294 293 292 292 288 287 293 295 284 268 257 249 237 225 212 199 191 191 188 182 185 195 199 201 210 220 233 246 256 266 279 290 292 281 273 276 280 284 289 293 294 297 302 307 307 301 299 300 301 298 296 299 304 302 296 292 291 289 288 287 286 285 283 280 277 276 275 277 279 281 282 284 286 286 285 283 282
282 283 281 282 285 287 286 283 282 285 288 289 290 288 282 280 285 287 278 265 255 245 234 224 211 196 183 179 177 175 178 185 190 199 212 226 242 256 263 271 278 281 277 272 274 279 284 286 289 292 294 297 301 303 300 298 302 306 304 300 300 304 304 298 291 286 283 284 287 288 287 286 283 282 281 279 279 281 283 282 282 284 286 285 284 283 283
277 278 280 282 283 283 283 282 282 282 281 280 282 283 278 275 277 277 270 259 249 240 235 225 210 195 187 181 176 175 179 186 196 211 223 235 249 257 260 263 267 267 269 274 281 286 290 289 291 295 298 297 295 292 290 294 305 312 306 301 302 308 307 300 296 294 290 288 288 288 288 287 285 284 283 282 281 282 283 281 281 283 284 284 284 283 282
281 281 282 284 284 283 282 280 281 280 277 275 278 279 274 268 266 262 254 245 238 232 223 208 193 184 180 177 175 176 182 193 206 216 223 234 245 247 248 257 267 275 283 289 294 299 301 300 301 304 302 298 295 292 289 289 296 303 301 298 302 308 309 306 305 304 301 295 291 289 288 287 286 286 286 285 283 282 282 282 282 283 283 283 283 281 280
286 285 286 286 285 282 279 279 280 279 276 274 276 277 272 264 255 247 238 229 220 211 200 189 182 178 176 176 177 180 187 197 206 207 207 216 231 246 259 266 274 285 296 302 307 309 309 309 311 310 304 298 296 295 291 288 288 291 295 300 307 311 310 308 306 304 300 297 294 291 290 288 288 288 289 287 286 284 284 284 283 281 280 281 282 284 284
285 285 285 284 282 281 280 279 280 280 276 273 275 277 275 265 248 236 226 214 202 195 190 184 180 176 172 166 167 177 187 193 194 192 194 201 216 233 236 237 257 292 309 312 313 313 312 310 307 303 301 301 300 298 297 297 297 299 307 318 323 316 309 306 303 300 299 298 296 293 291 290 288 288 288 288 288 288 286 284 283 283 284 287 290 291 291
276 276 277 276 275 275 275 276 278 278 276 273 273 274 271 259 239 223 213 200 189 185 184 182 175 167 160 158 163 175 183 179 173 178 189 195 194 193 202 232 277 301 309 311 315 319 318 310 304 308 314 316 316 315 315 317 321 326 330 328 320 308 301 300 302 303 301 299 297 295 292 289 287 286 285 286 285 283 281 279 280 282 284 285 286 286 286
276 275 273 272 270 268 267 270 274 275 275 276 277 275 269 254 229 209 197 187 177 171 169 169 165 161 160 162 165 169 172 172 175 187 203 209 202 195 213 256 289 304 313 321 331 341 338 325 327 332 331 329 331 335 334 328 327 327 320 311 308 305 299 297 300 302 300 300 302 301 296 291 290 290 290 289 286 284 281 280 279 278 278 279 281 283 284
281 276 272 270 270 268 265 264 265 267 271 274 275 271 260 239 213 196 185 176 169 165 162 160 159 159 161 164 169 174 180 183 185 189 198 207 215 219 238 288 316 327 333 340 349 356 346 336 336 337 336 337 341 345 340 329 321 317 313 311 315 316 310 303 300 297 294 297 304 306 303 300 298 297 295 292 289 287 285 284 283 283 284 285 287 287 287
285 279 274 272 274 273 268 261 258 264 270 266 258 249 238 216 196 185 177 170 166 166 165 161 158 158 162 170 179 185 185 178 168 173 194 210 216 213 248 8 355 330 327 342 356 352 336 334 334 336 342 350 356 350 346 343 336 328 321 319 322 323 318 315 314 309 303 300 300 302 305 306 305 301 299 296 294 291 289 287 286 286 285 285 285 285 286
292 288 283 277 274 274 269 257 250 256 258 246 225 213 204 190 179 174 172 167 163 165 169 169 164 162 165 172 180 184 183 176 172 177 188 192 184 167 136 35 326 311 321 349 3 324 318 328 335 340 349 2 2 350 345 341 336 331 326 325 327 328 327 328 332 332 326 320 316 314 314 313 308 304 302 300 296 293 291 288 287 286 285 284 284 285 286
301 299 298 291 280 270 257 244 241 243 238 223 209 198 187 175 166 163 164 161 158 161 169 173 171 170 172 175 176 174 172 172 174 177 185 194 197 199 230 282 301 321 343 1 308 296 316 329 335 340 352 4 356 344 339 335 333 337 339 337 334 331 329 331 335 337 335 335 336 332 322 314 311 309 307 304 300 298 295 292 291 289 287 286 286 286 288
319 313 306 299 292 272 240 232 235 228 210 201 198 191 181 169 160 157 162 163 161 159 160 162 166 170 171 168 164 165 170 175 176 175 181 193 193 197 246 273 286 335 356 340 301 303 322 331 334 341 352 358 342 334 337 340 339 340 343 343 338 332 327 328 333 337 338 339 340 335 325 316 310 307 305 303 303 301 299 297 295 291 288 286 286 287 289
334 330 306 278 276 270 242 235 234 214 195 189 186 182 179 176 175 173 172 169 163 158 154 155 160 164 163 159 162 172 179 180 176 167 158 154 159 178 246 262 250 266 325 319 310 315 325 331 334 338 344 344 333 331 337 343 344 342 344 346 344 338 336 337 339 340 339 336 335 336 334 329 321 314 309 305 303 301 299 298 294 290 288 288 289 289 292
353 352 343 306 265 245 229 220 210 197 191 190 189 185 183 186 188 184 173 163 157 157 157 157 158 159 159 162 170 177 178 178 178 176 171 172 193 233 252 256 254 259 281 298 305 313 322 324 322 323 328 333 329 327 335 347 354 353 352 351 349 345 344 346 348 347 344 339 333 331 333 332 329 325 320 315 309 304 301 298 294 290 289 289 289 289 290
34 29 21 24 67 181 177 172 180 186 189 192 192 189 186 185 186 180 167 156 154 158 160 158 154 153 158 167 176 183 184 187 194 196 190 193 208 216 223 243 265 276 283 285 284 286 289 291 299 310 322 330 326 322 331 347 358 360 358 358 357 354 350 350 352 355 356 351 342 337 337 338 335 331 328 327 324 318 310 303 297 293 291 289 288 288 288
51 53 55 67 91 114 119 131 158 170 166 161 170 176 174 170 171 172 165 157 157 162 164 160 150 145 154 169 180 174 155 166 182 189 193 202 214 218 227 253 277 290 294 288 282 285 289 289 292 302 317 325 325 325 332 344 353 357 0 2 2 0 356 353 354 359 3 1 356 353 352 349 344 338 334 333 331 328 324 316 308 301 298 295 293 291 288
67 73 77 83 95 105 106 109 128 143 139 135 149 161 163 162 169 172 166 158 159 164 167 163 156 152 160 178 189 165 143 156 179 188 188 195 209 221 232 251 271 282 285 284 286 290 292 291 293 300 308 311 316 325 334 340 344 350 356 1 3 4 4 0 357 359 2 3 3 3 1 359 354 349 345 341 335 331 329 326 320 314 308 302 297 293 288